#timestamp,LO_Frequency,Hit,StdDev 
1606262415.9,286047001.1,N
1606262435.7,286047002.4,N
1606262455.5,286047000.6,N
1606262475.4,286046999.0,N
1606262495.2,286046997.8,N
1606262515.0,286046999.6,N
1606262515.9,286046999.6,N
1606262535.8,286046998.0,N
1606262555.6,286046998.0,N
1606262575.5,286046995.0,Y
1606262595.3,286046999.6,P
1606262615.1,286046997.3,P
1606262635.9,286046997.3,N
1606262655.7,286046995.3,Y
1606262675.6,286046997.0,P
1606262695.4,286046997.0,P
1606262715.2,286046997.4,P
1606262735.1,286046998.0,Y
1606262736.0,286046998.0,P
1606262755.8,286046998.7,P
1606262775.6,286046998.7,N
1606262795.5,286046999.2,N
1606262815.3,286046998.7,N
1606262835.2,286046999.3,N
1606262855.9,286046998.4,N
1606262875.7,286047000.7,N
1606262895.6,286047001.1,N
1606262915.4,286046998.5,N
1606262935.3,286047001.1,N
1606262955.1,286046999.9,N
1606262956.0,286046999.9,N
1606262975.8,286047002.4,N
1606262995.7,286047002.5,N
1606263015.5,286047002.0,N
1606263035.3,286047001.7,N
1606263055.2,286047002.4,N
1606263075.0,286047002.0,N
1606263075.9,286047002.0,N
1606263095.8,286047001.3,N
1606263115.6,286047002.4,N
1606263135.4,286047004.1,N
1606263155.3,286047004.3,N
1606263175.1,286047003.8,N
1606263195.9,286047003.5,N
1606263215.7,286047004.3,N
1606263235.5,286047001.8,N
1606263255.4,286047002.1,N
1606263275.2,286047001.9,N
1606263295.0,286047002.4,N
1606263295.9,286047002.4,N
1606263315.8,286047002.2,N
1606263335.6,286047005.5,Y
1606263355.5,286047003.1,P
1606263375.3,286047005.8,P
1606263395.1,286047003.4,N
1606263415.9,286047001.4,N
1606263435.7,286047001.8,N
1606263455.5,286047001.6,N
1606263475.4,286047001.3,N
1606263495.2,286047002.0,N
1606263515.1,286047004.4,Y
1606263516.0,286047004.4,P
1606263535.8,286047002.7,N
1606263555.6,286047002.1,N
1606263575.5,286047002.5,N
1606263595.3,286047003.7,Y
1606263615.2,286047002.7,P
1606263635.9,286047000.5,P
1606263655.7,286047000.6,N
1606263675.6,286046998.5,N
1606263695.4,286046998.2,N
1606263715.2,286046996.5,N
1606263735.1,286046996.9,N
1606263736.0,286046996.9,N
1606263755.8,286046999.3,N
1606263775.7,286046998.3,N
1606263795.5,286047000.4,N
1606263815.3,286047000.2,N
1606263835.2,286047001.1,N
1606263855.9,286046998.2,N
1606263875.7,286046998.3,N
1606263895.6,286046998.4,N
1606263915.4,286047000.9,N
1606263935.3,286047000.8,N
1606263955.1,286047000.6,N
1606263956.0,286047000.6,N
1606263975.8,286046999.9,N
1606263995.7,286047002.1,N
1606264015.5,286047001.8,N
1606264035.3,286047002.6,N
1606264055.2,286047002.6,N
1606264075.0,286047002.8,N
1606264075.9,286047002.8,N
1606264095.8,286046999.9,N
1606264115.6,286046999.9,N
1606264135.4,286047002.4,N
1606264155.3,286047002.3,N
1606264175.1,286047001.5,N
1606264195.8,286046999.9,N
1606264215.7,286047000.2,N
1606264235.5,286047000.0,N
1606264255.4,286047002.3,N
1606264275.2,286047001.9,N
1606264295.0,286047001.5,N
1606264295.9,286047001.5,N
1606264315.8,286047002.5,N
1606264335.6,286047000.5,N
1606264355.4,286047000.7,N
1606264375.3,286047001.1,N
1606264395.1,286046998.3,N
1606264415.9,286047001.1,N
1606264435.7,286047000.8,N
1606264455.5,286046998.6,N
1606264475.4,286047000.7,N
1606264495.2,286047002.7,N
1606264515.0,286046998.5,N
1606264515.9,286046998.5,N
1606264535.8,286046999.5,N
1606264555.6,286046998.9,N
1606264575.5,286046999.4,N
1606264595.3,286046996.9,N
1606264615.1,286046998.7,N
1606264635.9,286046998.9,N
1606264655.7,286046999.4,N
1606264675.5,286046998.8,N
1606264695.4,286046998.9,N
1606264715.2,286047000.8,N
1606264735.0,286046998.2,N
1606264736.0,286046998.2,N
1606264755.8,286046998.2,N
1606264775.6,286046998.1,N
1606264795.5,286047000.6,N
1606264815.3,286047002.7,N
1606264835.1,286047000.2,N
1606264855.9,286047000.8,N
1606264875.7,286047001.2,N
1606264895.5,286046998.8,N
1606264915.4,286046999.2,N
1606264935.2,286047000.7,N
1606264955.1,286047001.0,N
1606264956.0,286047001.0,N
1606264975.8,286046998.9,N
1606264995.6,286046997.0,N
1606265015.5,286046996.6,N
1606265035.3,286046998.8,N
1606265055.2,286046998.6,N
1606265075.9,286046998.6,N
1606265095.7,286046998.2,N
1606265115.6,286047000.8,N
1606265135.4,286047000.2,N
1606265155.2,286047001.2,N
1606265175.1,286046998.4,N
1606265176.0,286046998.4,N
1606265225.8,286046998.6,E
1606265235.8,286047000.6,N
1606265255.6,286047000.4,P
1606265275.4,286047002.4,P
1606265295.3,286047002.5,N
1606265315.1,286047001.5,N
1606265335.8,286047001.3,N
1606265355.7,286047001.4,N
1606265375.5,286047003.5,Y
1606265395.4,286047004.8,P
1606265415.2,286047005.1,P
1606265435.0,286047004.9,N
1606265435.9,286047004.9,Y
1606265455.8,286047002.3,P
1606265475.6,286047000.3,N
1606265495.5,286047000.0,N
1606265515.3,286047000.9,N
1606265535.1,286046998.7,N
1606265555.9,286046999.6,N
1606265575.7,286046996.7,N
1606265595.5,286046999.4,N
1606265615.4,286046998.1,N
1606265635.2,286046998.3,N
1606265655.1,286046999.0,N
1606265656.0,286046999.0,N
1606265675.8,286046996.6,N
1606265695.6,286046997.0,N
1606265715.5,286047011.9,Y
1606265735.3,286047002.8,P
1606265755.1,286047001.0,N
1606265775.9,286047001.1,N
1606265795.7,286046998.2,N
1606265815.6,286046996.5,N
1606265835.4,286046998.9,N
1606265855.2,286047000.9,N
1606265875.1,286047001.2,N
1606265876.0,286047001.2,N
1606265895.8,286046998.5,N
1606265915.6,286047000.8,N
1606265935.5,286047000.3,N
1606265955.3,286047001.0,N
1606265975.2,286046998.7,N
1606265995.9,286046999.1,N
